Location: Peterborough
(44.3091°N, 78.3197°W)
Time: 20:26:39
(UTC-04:00)

Courier 1B Rocket - Pass Details

Date: 29 March 2023
Orbit: 920 x 1202 km, 28.2° (Epoch: 04 June)

Event Time Altitude Azimuth Distance (km) Brightness Sun altitude
Rises 20:44:53 0° 236° (WSW) 3,940 8.8 -12.7°
Reaches altitude 10° 20:48:31 10° 221° (SW) 2,929 7.8 -13.4°
Maximum altitude 20:53:27 20° 177° (S) 2,200 6.6 -14.2°
Enters shadow 20:56:45 14° 143° (SE) 2,487 6.6 -14.7°
